Regional Weather Roundup
Issued by NWS

Home | Current Version | Previous Version | Text Only | Print | Product List | Glossary Off
Versions: 1 2 3 4 5 6 7 8 9 10 11 12 13 14 15 16 17 18 19 20 21 22 23 24 25 26 27 28 29 30 31 32 33 34 35 36 37 38 39 40 41 42 43 44 45 46 47 48 49 50

000
ASUS43 KLSX 272059
RWRMO

WEATHER SUMMARY FOR MISSOURI
NATIONAL WEATHER SERVICE SPRINGFIELD MO
300 PM CST FRI FEB 27 2015

NOTE: "FAIR" INDICATES FEW OR NO CLOUDS BELOW 12,000 FEET WITH NO
       SIGNIFICANT WEATHER AND/OR OBSTRUCTIONS TO VISIBILITY.
       CURRENT SKY AND/OR WEATHER CONDITIONS ARE NOT AVAILABLE FOR
       CHILLICOTHE AND FARMINGTON.

MOZ001>031-035>038-043-044-053-054-272200-
...NORTHERN AND WESTERN MISSOURI...

CITY           SKY/WX    TMP DP  RH WIND       PRES   REMARKS
KANSAS CTY INT CLOUDY    17   0  47 VRB5      30.55F WCI  10
KANSAS C DTWN  PTSUNNY   18   0  45 VRB5      30.58F WCI  11
LEE`S SUMMIT   PTSUNNY   18   0  45 NE5       30.56F WCI  11
ST JOSEPH      MOSUNNY   19   0  43 MISG      30.57F
CHILLICOTHE      N/A     18   3  52 N6        30.60F WCI  10

$$
MOZ066>068-077>081-088>096-101>105-272200-
...SOUTHWEST MISSOURI...

CITY           SKY/WX    TMP DP  RH WIND       PRES   REMARKS
SPRINGFIELD    CLOUDY    22   3  44 N5        30.51S WCI  16
JOPLIN         CLOUDY    21   1  41 NE6       30.54F WCI  13

$$
MOZ032>034-039>042-045>050-055>058-069>072-272200-
...CENTRAL MISSOURI...

CITY           SKY/WX    TMP DP  RH WIND       PRES   REMARKS
COLUMBIA       MOSUNNY   22   2  42 N3        30.57F
JEFFERSON CITY SUNNY     23  -2  33 NW3       30.60F
ROLLA          PTSUNNY   20  -2  38 NE7       30.51F WCI  11
SEDALIA        MOSUNNY   21   0  39 E5        30.58F WCI  15
OSAGE BEACH    CLOUDY    21   0  39 NE5       30.56R WCI  15

$$
MOZ051-052-059>065-272200-
...EAST CENTRAL MISSOURI...

CITY           SKY/WX    TMP DP  RH WIND       PRES   REMARKS
ST LOUIS INTL  PTSUNNY   18  -1  43 CALM      30.63F
SPIRIT OF STL  SUNNY     19  -1  41 N6        30.62F WCI  11
ST CHARLES     SUNNY     15   0  51 VRB5      30.65S WCI   8

$$
MOZ072>076-082>087-097>100-106>115-272200-
...SOUTH CENTRAL AND SOUTHEAST MISSOURI...

CITY           SKY/WX    TMP DP  RH WIND       PRES   REMARKS
CAPE GIRARDEAU MOSUNNY   23   7  50 NE8       30.60F WCI  14
FARMINGTON     MOSUNNY   19   3  49 N3        30.58F
POPLAR BLUFF   PTSUNNY   21   7  54 E10       30.58F WCI  10
WEST PLAINS    CLOUDY    20  -2  38 E5        30.52R WCI  13

$$


USA.gov is the U.S. government's official web portal to all federal, state and local government web resources and services.